Rochester, MN
on Monday, November 25, 2013

Monday
Previous Day Next Day
Daily Summary
 ActualAverageRecord
Temperature
Mean Temperature °F 28°F  
Max Temperature 40°F 36°F 61°F (1960)
Min Temperature 23°F 21°F -12°F (1977)
Degree Days
Heating Degree Days 33 37  
Month to date heating degree days 802 745  
Since 1 July heating degree days 1485 1481  
Cooling Degree Days 0 0  
Month to date cooling degree days 0 0  
Year to date cooling degree days 656 585  
Moisture
Dew Point 21°F   
Average Humidity 68    
Maximum Humidity 81    
Minimum Humidity 54    
Precipitation
Precipitation T in 0.06 in 1.06 in (1952)
Month to date precipitation 1.76 1.62  
Year to date precipitation 40.66 31.50  
Snow
Snow T in 0.30 in 10.60 in (1952)
Month to date snowfall 1.3 4.5  
Since 1 July snowfall 1.3 5.3  
Snow Depth 0.00 in   
Wind
Wind Speed 18 mph   
Max Wind Speed 31 mph   
Max Gust Speed 39 mph   
Visibility 10 miles   
Events     

Key: T is trace of precipitation, MM is missing value
Source: NWS Daily Summary
Time(CST)TemperatureDew PointHumidity Pressure Visibility Wind DirectionWind SpeedGust SpeedPrecipitationEvents Conditions
12:54 AM 23.0°F 10.9°F 60% 30.09 in 10.0 miles SSW 28.8 mph 38.0 mph N/A   Overcast
1:54 AM 24.1°F 12.0°F 60% 30.07 in 10.0 miles SSW 25.3 mph 34.5 mph N/A   Overcast
2:54 AM 24.1°F 12.9°F 62% 30.05 in 10.0 miles SSW 26.5 mph 35.7 mph N/A   Overcast
3:54 AM 24.1°F 16.0°F 71% 30.03 in 10.0 miles SSW 25.3 mph 34.5 mph N/A   Overcast
4:54 AM 25.0°F 18.0°F 75% 30.03 in 10.0 miles SW 26.5 mph 35.7 mph N/A   Clear
5:54 AM 25.0°F 19.0°F 78% 30.03 in 10.0 miles SW 25.3 mph 31.1 mph N/A   Scattered Clouds
6:54 AM 26.1°F 19.0°F 75% 30.02 in 10.0 miles SW 21.9 mph 28.8 mph N/A   Overcast
7:54 AM 26.1°F 18.0°F 71% 30.03 in 10.0 miles SW 20.7 mph - 0.00 in   Mostly Cloudy
8:54 AM 27.0°F 19.0°F 72% 30.04 in 10.0 miles SW 19.6 mph - N/A   Partly Cloudy
9:54 AM 28.9°F 19.9°F 69% 30.04 in 10.0 miles SW 15.0 mph - N/A   Clear
10:29 AM 30.2°F 21.2°F 69% 29.99 in 10.0 miles WSW 15.0 mph - N/A   Mostly Cloudy
10:54 AM 32.0°F 23.0°F 69% 30.04 in 10.0 miles West 17.3 mph - N/A   Overcast
11:40 AM 35.6°F 24.8°F 65% 29.97 in 10.0 miles West 15.0 mph - N/A   Mostly Cloudy
11:54 AM 36.0°F 26.1°F 67% 30.02 in 10.0 miles West 16.1 mph - N/A   Scattered Clouds
12:54 PM 37.9°F 27.0°F 65% 30.01 in 10.0 miles West 12.7 mph - N/A   Clear
1:54 PM 37.9°F 26.1°F 62% 30.01 in 10.0 miles WNW 12.7 mph 23.0 mph N/A   Overcast
2:54 PM 37.9°F 24.1°F 57% 30.03 in 10.0 miles WNW 15.0 mph - N/A   Overcast
3:54 PM 37.9°F 23.0°F 55% 30.05 in 10.0 miles WNW 16.1 mph - N/A   Overcast
4:54 PM 36.0°F 23.0°F 59% 30.07 in 10.0 miles WNW 13.8 mph - N/A   Overcast
5:54 PM 35.1°F 23.0°F 61% 30.09 in 10.0 miles WNW 11.5 mph - N/A   Overcast
6:54 PM 35.1°F 23.0°F 61% 30.09 in 10.0 miles WNW 13.8 mph - N/A   Overcast
7:54 PM 35.1°F 23.0°F 61% 30.09 in 10.0 miles WNW 15.0 mph - N/A   Overcast
8:54 PM 34.0°F 23.0°F 64% 30.09 in 10.0 miles WNW 11.5 mph - N/A   Overcast
9:54 PM 34.0°F 23.0°F 64% 30.08 in 10.0 miles WNW 12.7 mph - N/A   Overcast
10:54 PM 33.1°F 23.0°F 66% 30.07 in 10.0 miles WNW 12.7 mph - N/A   Overcast
11:10 PM 33.8°F 23.0°F 65% 30.03 in 10.0 miles WNW 15.0 mph 24.2 mph N/A   Overcast
11:19 PM 33.8°F 21.2°F 60% 30.04 in 10.0 miles WNW 19.6 mph 24.2 mph N/A   Overcast
11:54 PM 32.0°F 23.0°F 69% 30.09 in 10.0 miles NW 12.7 mph - N/A   Overcast
Astronomy
Sunrise:07:17 AM (CST) Moon Rise:No Moon Rise/
Sunset:04:36 PM (CST) Moon Set:12:26 PM (CST)
Moon Phase
Nov. 25 Nov. 25 Dec. 02 Dec. 09 Dec. 17

Copyright © 2014 The Weather Underground, Inc.